Terminal Aerodrome Forecast
Issued by NWS Wichita, KS

Home | Current Version | Previous Version | Graphics & Text | Print | Product List | Glossary On
Versions: 1 2 3 4 5 6 7 8 9 10 11 12
000
FTUS43 KICT 222339
TAFICT
TAF
KICT 222339Z 2300/2324 16016G24KT P6SM FEW060
     FM230300 17013KT P6SM SKC
     FM231600 18018G25KT P6SM SCT050=

USA.gov is the U.S. government's official web portal to all federal, state and local government web resources and services.